,,PressureMeas_1m,,PRMeasQMR101_1,,RHStat155_1m_1,,SRMeasQMS101R_1m,,TAStat155_1m_1,,GenWind_1,,GenWind_1,
2019-06-21, 00:00:06,VALID,917.919,VALID,0.0,VALID,99.668,VALID,-0.009,VALID,20.708,INVALID,360.0,VALID,0.0,
2019-06-21, 00:01:06,VALID,917.905,VALID,0.0,VALID,99.669,VALID,-0.014,VALID,20.69,INVALID,360.0,VALID,0.0,
2019-06-21, 00:02:06,VALID,917.904,VALID,0.0,VALID,99.675,VALID,-0.009,VALID,20.677,INVALID,360.0,VALID,0.0,
2019-06-21, 00:03:06,VALID,917.9,VALID,0.0,VALID,99.685,VALID,-0.009,VALID,20.658,INVALID,360.0,VALID,0.0,
2019-06-21, 00:04:06,VALID,917.896,VALID,0.0,VALID,99.67,VALID,-0.007,VALID,20.65,INVALID,360.0,VALID,0.0,
2019-06-21, 00:05:06,VALID,917.885,VALID,0.0,VALID,99.657,VALID,-0.011,VALID,20.648,INVALID,360.0,VALID,0.0,
2019-06-21, 00:06:06,VALID,917.87,VALID,0.0,VALID,99.669,VALID,-0.001,VALID,20.652,INVALID,360.0,VALID,0.0,
2019-06-21, 00:07:06,VALID,917.878,VALID,0.0,VALID,99.681,VALID,0.002,VALID,20.665,INVALID,360.0,VALID,0.0,
2019-06-21, 00:08:06,VALID,917.895,VALID,0.0,VALID,99.693,VALID,-0.008,VALID,20.655,INVALID,360.0,VALID,0.0,
2019-06-21, 00:09:06,VALID,917.888,VALID,0.0,VALID,99.68,VALID,-0.001,VALID,20.646,INVALID,360.0,VALID,0.0,
2019-06-21, 00:10:06,VALID,917.894,VALID,0.0,VALID,99.681,VALID,-0.003,VALID,20.647,INVALID,360.0,VALID,0.0,
2019-06-21, 00:11:06,VALID,917.894,VALID,0.0,VALID,99.684,VALID,-0.001,VALID,20.634,INVALID,360.0,VALID,0.0,
2019-06-21, 00:12:06,VALID,917.922,VALID,0.0,VALID,99.665,VALID,-0.006,VALID,20.636,INVALID,360.0,VALID,0.0,
2019-06-21, 00:13:06,VALID,917.926,VALID,0.0,VALID,99.69,VALID,-0.007,VALID,20.643,INVALID,360.0,VALID,0.0,
2019-06-21, 00:14:06,VALID,917.924,VALID,0.0,VALID,99.69,VALID,-0.007,VALID,20.66,INVALID,360.0,VALID,0.0,
2019-06-21, 00:15:06,VALID,917.926,VALID,0.0,VALID,99.703,VALID,-0.008,VALID,20.671,INVALID,360.0,VALID,0.0,
2019-06-21, 00:16:06,VALID,917.923,VALID,0.0,VALID,99.695,VALID,-0.013,VALID,20.683,INVALID,360.0,VALID,0.0,
2019-06-21, 00:17:06,VALID,917.923,VALID,0.0,VALID,99.699,VALID,0.002,VALID,20.689,INVALID,360.0,VALID,0.0,
2019-06-21, 00:18:06,VALID,917.923,VALID,0.0,VALID,99.691,VALID,-0.006,VALID,20.701,INVALID,360.0,VALID,0.0,
2019-06-21, 00:19:06,VALID,917.922,VALID,0.0,VALID,99.703,VALID,0.001,VALID,20.71,INVALID,360.0,VALID,0.0,
2019-06-21, 00:20:06,VALID,917.93,VALID,0.0,VALID,99.687,VALID,-0.004,VALID,20.708,INVALID,360.0,VALID,0.0,
2019-06-21, 00:21:06,VALID,917.944,VALID,0.0,VALID,99.705,VALID,-0.004,VALID,20.714,INVALID,360.0,VALID,0.0,
2019-06-21, 00:22:06,VALID,917.949,VALID,0.0,VALID,99.703,VALID,-0.002,VALID,20.698,INVALID,360.0,VALID,0.0,
2019-06-21, 00:23:06,VALID,917.954,VALID,0.0,VALID,99.696,VALID,0.007,VALID,20.702,INVALID,360.0,VALID,0.0,
2019-06-21, 00:24:06,VALID,917.951,VALID,0.0,VALID,99.692,VALID,-0.007,VALID,20.714,INVALID,360.0,VALID,0.0,
2019-06-21, 00:25:06,VALID,917.949,VALID,0.0,VALID,99.704,VALID,0.01,VALID,20.668,INVALID,360.0,VALID,0.0,
2019-06-21, 00:26:06,VALID,917.931,VALID,0.0,VALID,99.702,VALID,0.001,VALID,20.681,INVALID,360.0,VALID,0.0,
2019-06-21, 00:27:06,VALID,917.913,VALID,0.0,VALID,99.696,VALID,-0.006,VALID,20.678,INVALID,360.0,VALID,0.0,
2019-06-21, 00:28:06,VALID,917.869,VALID,0.0,VALID,99.695,VALID,-0.016,VALID,20.666,INVALID,360.0,VALID,0.0,
2019-06-21, 00:29:06,VALID,917.849,VALID,0.0,VALID,99.689,VALID,0.01,VALID,20.64,INVALID,360.0,VALID,0.0,
2019-06-21, 00:30:06,VALID,917.826,VALID,0.0,VALID,99.697,VALID,-0.002,VALID,20.624,INVALID,360.0,VALID,0.0,
2019-06-21, 00:31:06,VALID,917.802,VALID,0.0,VALID,99.702,VALID,-0.012,VALID,20.634,INVALID,360.0,VALID,0.0,
2019-06-21, 00:32:06,VALID,917.782,VALID,0.0,VALID,99.715,VALID,-0.0,VALID,20.67,INVALID,360.0,VALID,0.0,
2019-06-21, 00:33:06,VALID,917.784,VALID,0.0,VALID,99.709,VALID,0.021,VALID,20.653,INVALID,360.0,VALID,0.0,
2019-06-21, 00:34:06,VALID,917.759,VALID,0.0,VALID,99.694,VALID,0.026,VALID,20.608,INVALID,360.0,VALID,0.0,
2019-06-21, 00:35:06,VALID,917.734,VALID,0.0,VALID,99.686,VALID,0.021,VALID,20.589,INVALID,360.0,VALID,0.0,
2019-06-21, 00:36:06,VALID,917.699,VALID,0.0,VALID,99.697,VALID,0.013,VALID,20.585,INVALID,360.0,VALID,0.0,
2019-06-21, 00:37:06,VALID,917.672,VALID,0.0,VALID,99.698,VALID,0.0,VALID,20.57,INVALID,360.0,VALID,0.0,
2019-06-21, 00:38:06,VALID,917.64,VALID,0.0,VALID,99.718,VALID,0.01,VALID,20.557,INVALID,360.0,VALID,0.0,
2019-06-21, 00:39:06,VALID,917.603,VALID,0.0,VALID,99.71,VALID,0.016,VALID,20.552,INVALID,360.0,VALID,0.0,
2019-06-21, 00:40:06,VALID,917.56,VALID,0.0,VALID,99.703,VALID,0.021,VALID,20.552,INVALID,360.0,VALID,0.0,
2019-06-21, 00:41:06,VALID,917.539,VALID,0.0,VALID,99.71,VALID,0.021,VALID,20.535,INVALID,360.0,VALID,0.0,
2019-06-21, 00:42:06,VALID,917.52,VALID,0.0,VALID,99.708,VALID,0.023,VALID,20.541,INVALID,360.0,VALID,0.0,
2019-06-21, 00:43:06,VALID,917.516,VALID,0.0,VALID,99.715,VALID,0.006,VALID,20.531,INVALID,360.0,VALID,0.0,
2019-06-21, 00:44:06,VALID,917.515,VALID,0.0,VALID,99.715,VALID,0.006,VALID,20.538,INVALID,360.0,VALID,0.0,
2019-06-21, 00:45:06,VALID,917.528,VALID,0.0,VALID,99.722,VALID,0.013,VALID,20.531,INVALID,360.0,VALID,0.0,
2019-06-21, 00:46:06,VALID,917.542,VALID,0.0,VALID,99.701,VALID,0.003,VALID,20.537,INVALID,360.0,VALID,0.0,
2019-06-21, 00:47:06,VALID,917.536,VALID,0.0,VALID,99.719,VALID,0.004,VALID,20.527,INVALID,360.0,VALID,0.0,
2019-06-21, 00:48:06,VALID,917.545,VALID,0.0,VALID,99.715,VALID,-0.003,VALID,20.529,INVALID,360.0,VALID,0.0,
2019-06-21, 00:49:06,VALID,917.561,VALID,0.0,VALID,99.731,VALID,0.025,VALID,20.552,INVALID,360.0,VALID,0.0,
2019-06-21, 00:50:06,VALID,917.553,VALID,0.0,VALID,99.71,VALID,0.008,VALID,20.543,INVALID,360.0,VALID,0.0,
2019-06-21, 00:51:06,VALID,917.533,VALID,0.0,VALID,99.71,VALID,0.0,VALID,20.537,INVALID,360.0,VALID,0.0,
2019-06-21, 00:52:06,VALID,917.504,VALID,0.0,VALID,99.722,VALID,0.002,VALID,20.564,INVALID,360.0,VALID,0.0,
2019-06-21, 00:53:06,VALID,917.463,VALID,0.0,VALID,99.724,VALID,-0.006,VALID,20.596,INVALID,360.0,VALID,0.0,
2019-06-21, 00:54:06,VALID,917.436,VALID,0.0,VALID,99.73,VALID,-0.005,VALID,20.592,INVALID,360.0,VALID,0.0,
2019-06-21, 00:55:06,VALID,917.429,VALID,0.0,VALID,99.71,VALID,0.006,VALID,20.581,INVALID,360.0,VALID,0.0,
2019-06-21, 00:56:06,VALID,917.414,VALID,0.0,VALID,99.732,VALID,0.008,VALID,20.565,INVALID,360.0,VALID,0.0,
2019-06-21, 00:57:06,VALID,917.406,VALID,0.0,VALID,99.711,VALID,0.014,VALID,20.583,INVALID,360.0,VALID,0.0,
2019-06-21, 00:58:06,VALID,917.413,VALID,0.0,VALID,99.728,VALID,-0.001,VALID,20.597,INVALID,360.0,VALID,0.0,
2019-06-21, 00:59:06,VALID,917.414,VALID,0.0,VALID,99.719,VALID,0.011,VALID,20.588,INVALID,360.0,VALID,0.0,
2019-06-21, 01:00:06,VALID,917.419,VALID,0.0,VALID,99.727,VALID,0.016,VALID,20.582,INVALID,360.0,VALID,0.0,
2019-06-21, 01:01:06,VALID,917.412,VALID,0.0,VALID,99.728,VALID,0.012,VALID,20.566,INVALID,360.0,VALID,0.0,
2019-06-21, 01:02:06,VALID,917.415,VALID,0.0,VALID,99.718,VALID,0.005,VALID,20.565,INVALID,360.0,VALID,0.0,
2019-06-21, 01:03:06,VALID,917.392,VALID,0.0,VALID,99.734,VALID,-0.002,VALID,20.559,INVALID,360.0,VALID,0.0,
2019-06-21, 01:04:06,VALID,917.384,VALID,0.0,VALID,99.724,VALID,0.007,VALID,20.557,INVALID,360.0,VALID,0.0,
2019-06-21, 01:05:06,VALID,917.373,VALID,0.0,VALID,99.715,VALID,0.0,VALID,20.558,INVALID,360.0,VALID,0.0,
2019-06-21, 01:06:06,VALID,917.389,VALID,0.0,VALID,99.742,VALID,0.005,VALID,20.546,INVALID,360.0,VALID,0.0,
2019-06-21, 01:07:06,VALID,917.362,VALID,0.0,VALID,99.714,VALID,-0.01,VALID,20.53,INVALID,360.0,VALID,0.0,
2019-06-21, 01:08:06,VALID,917.376,VALID,0.0,VALID,99.726,VALID,0.008,VALID,20.531,INVALID,360.0,VALID,0.0,
2019-06-21, 01:09:06,VALID,917.346,VALID,0.0,VALID,99.718,VALID,-0.004,VALID,20.515,INVALID,360.0,VALID,0.0,
2019-06-21, 01:10:06,VALID,917.358,VALID,0.0,VALID,99.734,VALID,-0.002,VALID,20.506,INVALID,360.0,VALID,0.0,
2019-06-21, 01:11:06,VALID,917.322,VALID,0.0,VALID,99.718,VALID,0.007,VALID,20.486,INVALID,360.0,VALID,0.0,
2019-06-21, 01:12:06,VALID,917.311,VALID,0.0,VALID,99.731,VALID,-0.001,VALID,20.474,INVALID,360.0,VALID,0.0,
2019-06-21, 01:13:06,VALID,917.262,VALID,0.0,VALID,99.729,VALID,0.001,VALID,20.486,INVALID,360.0,VALID,0.0,
2019-06-21, 01:14:06,VALID,917.235,VALID,0.0,VALID,99.731,VALID,0.0,VALID,20.489,INVALID,360.0,VALID,0.0,
2019-06-21, 01:15:06,VALID,917.225,VALID,0.0,VALID,99.711,VALID,0.002,VALID,20.47,INVALID,360.0,VALID,0.0,
2019-06-21, 01:16:06,VALID,917.201,VALID,0.0,VALID,99.737,VALID,-0.003,VALID,20.465,INVALID,360.0,VALID,0.0,
2019-06-21, 01:17:06,VALID,917.176,VALID,0.0,VALID,99.732,VALID,0.007,VALID,20.443,INVALID,360.0,VALID,0.0,
2019-06-21, 01:18:06,VALID,917.176,VALID,0.0,VALID,99.732,VALID,0.011,VALID,20.436,INVALID,360.0,VALID,0.0,
2019-06-21, 01:19:06,VALID,917.172,VALID,0.0,VALID,99.705,VALID,0.021,VALID,20.402,INVALID,360.0,VALID,0.0,
2019-06-21, 01:20:06,VALID,917.14,VALID,0.0,VALID,99.717,VALID,0.025,VALID,20.368,INVALID,360.0,VALID,0.0,
2019-06-21, 01:21:06,VALID,917.151,VALID,0.0,VALID,99.718,VALID,0.017,VALID,20.357,INVALID,360.0,VALID,0.0,
2019-06-21, 01:22:06,VALID,917.138,VALID,0.0,VALID,99.714,VALID,0.019,VALID,20.36,INVALID,360.0,VALID,0.0,
2019-06-21, 01:23:06,VALID,917.105,VALID,0.0,VALID,99.713,VALID,0.031,VALID,20.354,INVALID,360.0,VALID,0.0,
2019-06-21, 01:24:06,VALID,917.098,VALID,0.0,VALID,99.728,VALID,0.012,VALID,20.369,INVALID,360.0,VALID,0.0,
2019-06-21, 01:25:06,VALID,917.085,VALID,0.0,VALID,99.732,VALID,0.023,VALID,20.36,INVALID,360.0,VALID,0.0,
2019-06-21, 01:26:06,VALID,917.079,VALID,0.0,VALID,99.721,VALID,0.019,VALID,20.378,INVALID,360.0,VALID,0.0,
2019-06-21, 01:27:06,VALID,917.064,VALID,0.0,VALID,99.729,VALID,0.031,VALID,20.399,INVALID,360.0,VALID,0.0,
2019-06-21, 01:28:06,VALID,917.065,VALID,0.0,VALID,99.711,VALID,0.008,VALID,20.405,INVALID,360.0,VALID,0.0,
2019-06-21, 01:29:06,VALID,917.057,VALID,0.0,VALID,99.732,VALID,0.012,VALID,20.424,INVALID,360.0,VALID,0.0,
2019-06-21, 01:30:06,VALID,917.031,VALID,0.0,VALID,99.737,VALID,0.005,VALID,20.467,INVALID,360.0,VALID,0.0,
2019-06-21, 01:31:06,VALID,917.002,VALID,0.0,VALID,99.725,VALID,0.004,VALID,20.461,INVALID,360.0,VALID,0.0,
2019-06-21, 01:32:06,VALID,916.996,VALID,0.0,VALID,99.71,VALID,0.006,VALID,20.444,INVALID,360.0,VALID,0.0,
2019-06-21, 01:33:06,VALID,916.976,VALID,0.0,VALID,99.718,VALID,0.005,VALID,20.444,INVALID,360.0,VALID,0.0,
2019-06-21, 01:34:06,VALID,916.96,VALID,0.0,VALID,99.728,VALID,0.009,VALID,20.452,INVALID,360.0,VALID,0.0,
2019-06-21, 01:35:06,VALID,916.94,VALID,0.0,VALID,99.726,VALID,-0.007,VALID,20.452,INVALID,360.0,VALID,0.0,
2019-06-21, 01:36:06,VALID,916.951,VALID,0.0,VALID,99.729,VALID,-0.008,VALID,20.445,INVALID,360.0,VALID,0.0,
2019-06-21, 01:37:06,VALID,916.915,VALID,0.0,VALID,99.716,VALID,-0.002,VALID,20.423,INVALID,360.0,VALID,0.0,
2019-06-21, 01:38:06,VALID,916.899,VALID,0.0,VALID,99.723,VALID,-0.001,VALID,20.439,INVALID,360.0,VALID,0.0,
2019-06-21, 01:39:06,VALID,916.89,VALID,0.0,VALID,99.729,VALID,0.008,VALID,20.47,INVALID,360.0,VALID,0.0,
2019-06-21, 01:40:06,VALID,916.868,VALID,0.0,VALID,99.725,VALID,0.01,VALID,20.482,INVALID,360.0,VALID,0.0,
2019-06-21, 01:41:06,VALID,916.841,VALID,0.0,VALID,99.726,VALID,0.006,VALID,20.502,INVALID,360.0,VALID,0.0,
2019-06-21, 01:42:06,VALID,916.795,VALID,0.0,VALID,99.724,VALID,0.025,VALID,20.517,INVALID,360.0,VALID,0.0,
2019-06-21, 01:43:06,VALID,916.769,VALID,0.0,VALID,99.728,VALID,0.005,VALID,20.528,INVALID,360.0,VALID,0.0,
2019-06-21, 01:44:06,VALID,916.79,VALID,0.0,VALID,99.717,VALID,0.008,VALID,20.53,INVALID,360.0,VALID,0.0,
2019-06-21, 01:45:06,VALID,916.779,VALID,0.0,VALID,99.717,VALID,0.002,VALID,20.535,INVALID,360.0,VALID,0.0,
2019-06-21, 01:46:06,VALID,916.759,VALID,0.0,VALID,99.721,VALID,0.01,VALID,20.521,INVALID,360.0,VALID,0.0,
2019-06-21, 01:47:06,VALID,916.759,VALID,0.0,VALID,99.724,VALID,0.004,VALID,20.505,INVALID,360.0,VALID,0.0,
2019-06-21, 01:48:06,VALID,916.752,VALID,0.0,VALID,99.712,VALID,-0.023,VALID,20.475,INVALID,360.0,VALID,0.0,
2019-06-21, 01:49:06,VALID,916.735,VALID,0.0,VALID,99.728,VALID,-0.014,VALID,20.451,INVALID,360.0,VALID,0.0,
2019-06-21, 01:50:06,VALID,916.736,VALID,0.0,VALID,99.713,VALID,-0.018,VALID,20.437,INVALID,360.0,VALID,0.0,
2019-06-21, 01:51:06,VALID,916.724,VALID,0.0,VALID,99.723,VALID,-0.01,VALID,20.455,INVALID,360.0,VALID,0.0,
2019-06-21, 01:52:06,VALID,916.74,VALID,0.0,VALID,99.719,VALID,-0.012,VALID,20.453,INVALID,360.0,VALID,0.0,
2019-06-21, 01:53:06,VALID,916.735,VALID,0.0,VALID,99.729,VALID,-0.014,VALID,20.459,INVALID,360.0,VALID,0.0,
2019-06-21, 01:54:06,VALID,916.757,VALID,0.0,VALID,99.725,VALID,-0.021,VALID,20.468,INVALID,360.0,VALID,0.0,
2019-06-21, 01:55:06,VALID,916.747,VALID,0.0,VALID,99.717,VALID,-0.006,VALID,20.445,INVALID,360.0,VALID,0.0,
2019-06-21, 01:56:06,VALID,916.752,VALID,0.0,VALID,99.731,VALID,-0.01,VALID,20.415,INVALID,360.0,VALID,0.0,
2019-06-21, 01:57:06,VALID,916.744,VALID,0.0,VALID,99.699,VALID,-0.02,VALID,20.398,INVALID,360.0,VALID,0.0,
2019-06-21, 01:58:06,VALID,916.731,VALID,0.0,VALID,99.726,VALID,-0.009,VALID,20.413,INVALID,360.0,VALID,0.0,
2019-06-21, 01:59:06,VALID,916.732,VALID,0.0,VALID,99.733,VALID,-0.008,VALID,20.462,INVALID,360.0,VALID,0.0,
2019-06-21, 02:00:06,VALID,916.723,VALID,0.0,VALID,99.717,VALID,-0.012,VALID,20.466,INVALID,360.0,VALID,0.0,
2019-06-21, 02:01:06,VALID,916.708,VALID,0.0,VALID,99.723,VALID,-0.033,VALID,20.47,INVALID,360.0,VALID,0.0,
2019-06-21, 02:02:06,VALID,916.718,VALID,0.0,VALID,99.738,VALID,0.006,VALID,20.496,INVALID,360.0,VALID,0.0,
2019-06-21, 02:03:06,VALID,916.731,VALID,0.0,VALID,99.728,VALID,0.004,VALID,20.509,INVALID,360.0,VALID,0.0,
2019-06-21, 02:04:06,VALID,916.737,VALID,0.0,VALID,99.736,VALID,-0.009,VALID,20.53,INVALID,360.0,VALID,0.0,
2019-06-21, 02:05:06,VALID,916.745,VALID,0.0,VALID,99.712,VALID,-0.016,VALID,20.528,INVALID,360.0,VALID,0.0,
2019-06-21, 02:06:06,VALID,916.767,VALID,0.0,VALID,99.705,VALID,-0.014,VALID,20.524,INVALID,360.0,VALID,0.0,
2019-06-21, 02:07:06,VALID,916.769,VALID,0.0,VALID,99.73,VALID,-0.016,VALID,20.522,INVALID,360.0,VALID,0.0,
2019-06-21, 02:08:06,VALID,916.776,VALID,0.0,VALID,99.718,VALID,0.001,VALID,20.531,INVALID,360.0,VALID,0.0,
2019-06-21, 02:09:06,VALID,916.781,VALID,0.0,VALID,99.707,VALID,-0.022,VALID,20.488,INVALID,360.0,VALID,0.0,
2019-06-21, 02:10:06,VALID,916.794,VALID,0.0,VALID,99.712,VALID,-0.016,VALID,20.472,INVALID,360.0,VALID,0.0,
2019-06-21, 02:11:06,VALID,916.786,VALID,0.0,VALID,99.701,VALID,-0.007,VALID,20.432,INVALID,360.0,VALID,0.0,
2019-06-21, 02:12:06,VALID,916.786,VALID,0.0,VALID,99.699,VALID,-0.008,VALID,20.409,INVALID,360.0,VALID,0.0,
2019-06-21, 02:13:06,VALID,916.754,VALID,0.0,VALID,99.706,VALID,0.004,VALID,20.378,INVALID,360.0,VALID,0.0,
2019-06-21, 02:14:06,VALID,916.729,VALID,0.0,VALID,99.706,VALID,0.003,VALID,20.403,INVALID,360.0,VALID,0.0,
2019-06-21, 02:15:06,VALID,916.712,VALID,0.0,VALID,99.708,VALID,0.001,VALID,20.412,INVALID,360.0,VALID,0.0,
2019-06-21, 02:16:06,VALID,916.675,VALID,0.0,VALID,99.707,VALID,-0.003,VALID,20.396,INVALID,360.0,VALID,0.0,
2019-06-21, 02:17:06,VALID,916.663,VALID,0.0,VALID,99.718,VALID,-0.017,VALID,20.382,INVALID,360.0,VALID,0.0,
2019-06-21, 02:18:06,VALID,916.624,VALID,0.0,VALID,99.7,VALID,-0.009,VALID,20.402,INVALID,360.0,VALID,0.0,
2019-06-21, 02:19:06,VALID,916.61,VALID,0.0,VALID,99.712,VALID,0.01,VALID,20.4,INVALID,360.0,VALID,0.0,
2019-06-21, 02:20:06,VALID,916.604,VALID,0.0,VALID,99.707,VALID,0.001,VALID,20.399,INVALID,360.0,VALID,0.0,
2019-06-21, 02:21:06,VALID,916.574,VALID,0.0,VALID,99.706,VALID,-0.0,VALID,20.402,INVALID,360.0,VALID,0.0,
2019-06-21, 02:22:06,VALID,916.548,VALID,0.0,VALID,99.724,VALID,0.001,VALID,20.416,INVALID,360.0,VALID,0.0,
2019-06-21, 02:23:06,VALID,916.515,VALID,0.0,VALID,99.732,VALID,-0.003,VALID,20.426,INVALID,360.0,VALID,0.0,
2019-06-21, 02:24:06,VALID,916.499,VALID,0.0,VALID,99.727,VALID,-0.018,VALID,20.433,INVALID,360.0,VALID,0.0,
2019-06-21, 02:25:06,VALID,916.502,VALID,0.0,VALID,99.711,VALID,-0.014,VALID,20.435,INVALID,360.0,VALID,0.0,
2019-06-21, 02:26:06,VALID,916.481,VALID,0.0,VALID,99.741,VALID,-0.005,VALID,20.465,INVALID,360.0,VALID,0.0,
2019-06-21, 02:27:06,VALID,916.478,VALID,0.0,VALID,99.739,VALID,-0.013,VALID,20.483,INVALID,360.0,VALID,0.0,
2019-06-21, 02:28:06,VALID,916.453,VALID,0.0,VALID,99.729,VALID,-0.021,VALID,20.485,INVALID,360.0,VALID,0.0,
2019-06-21, 02:29:06,VALID,916.469,VALID,0.0,VALID,99.73,VALID,0.005,VALID,20.496,INVALID,360.0,VALID,0.0,
2019-06-21, 02:30:06,VALID,916.441,VALID,0.0,VALID,99.712,VALID,0.001,VALID,20.472,INVALID,360.0,VALID,0.0,
2019-06-21, 02:31:06,VALID,916.407,VALID,0.0,VALID,99.725,VALID,-0.013,VALID,20.456,INVALID,360.0,VALID,0.0,
2019-06-21, 02:32:06,VALID,916.395,VALID,0.0,VALID,99.723,VALID,0.012,VALID,20.446,INVALID,360.0,VALID,0.0,
2019-06-21, 02:33:06,VALID,916.372,VALID,0.0,VALID,99.728,VALID,0.004,VALID,20.433,INVALID,360.0,VALID,0.0,
2019-06-21, 02:34:06,VALID,916.361,VALID,0.0,VALID,99.725,VALID,0.007,VALID,20.435,INVALID,360.0,VALID,0.0,
2019-06-21, 02:35:06,VALID,916.333,VALID,0.0,VALID,99.72,VALID,0.006,VALID,20.444,INVALID,360.0,VALID,0.0,
2019-06-21, 02:36:06,VALID,916.326,VALID,0.0,VALID,99.718,VALID,-0.005,VALID,20.424,INVALID,360.0,VALID,0.0,
2019-06-21, 02:37:06,VALID,916.313,VALID,0.0,VALID,99.717,VALID,0.002,VALID,20.409,INVALID,360.0,VALID,0.0,
2019-06-21, 02:38:06,VALID,916.334,VALID,0.0,VALID,99.729,VALID,-0.007,VALID,20.394,INVALID,360.0,VALID,0.0,
2019-06-21, 02:39:06,VALID,916.352,VALID,0.0,VALID,99.725,VALID,0.007,VALID,20.394,INVALID,360.0,VALID,0.0,
2019-06-21, 02:40:06,VALID,916.375,VALID,0.0,VALID,99.74,VALID,0.001,VALID,20.4,INVALID,360.0,VALID,0.0,
2019-06-21, 02:41:06,VALID,916.401,VALID,0.0,VALID,99.725,VALID,-0.006,VALID,20.417,INVALID,360.0,VALID,0.0,
2019-06-21, 02:42:06,VALID,916.422,VALID,0.0,VALID,99.723,VALID,-0.015,VALID,20.399,INVALID,360.0,VALID,0.0,
2019-06-21, 02:43:06,VALID,916.416,VALID,0.0,VALID,99.732,VALID,-0.015,VALID,20.395,INVALID,360.0,VALID,0.0,
2019-06-21, 02:44:06,VALID,916.42,VALID,0.0,VALID,99.726,VALID,-0.012,VALID,20.426,INVALID,360.0,VALID,0.0,
2019-06-21, 02:45:06,VALID,916.426,VALID,0.0,VALID,99.724,VALID,-0.019,VALID,20.426,INVALID,360.0,VALID,0.0,
2019-06-21, 02:46:06,VALID,916.42,VALID,0.0,VALID,99.726,VALID,0.0,VALID,20.45,INVALID,360.0,VALID,0.0,
2019-06-21, 02:47:06,VALID,916.425,VALID,0.0,VALID,99.727,VALID,-0.01,VALID,20.408,INVALID,360.0,VALID,0.0,
2019-06-21, 02:48:06,VALID,916.442,VALID,0.0,VALID,99.706,VALID,-0.017,VALID,20.37,INVALID,360.0,VALID,0.0,
2019-06-21, 02:49:06,VALID,916.436,VALID,0.0,VALID,99.716,VALID,-0.032,VALID,20.34,INVALID,360.0,VALID,0.0,
2019-06-21, 02:50:06,VALID,916.433,VALID,0.0,VALID,99.7,VALID,-0.018,VALID,20.335,INVALID,360.0,VALID,0.0,
2019-06-21, 02:51:06,VALID,916.417,VALID,0.0,VALID,99.723,VALID,-0.021,VALID,20.366,INVALID,360.0,VALID,0.0,
2019-06-21, 02:52:06,VALID,916.444,VALID,0.0,VALID,99.741,VALID,-0.011,VALID,20.402,INVALID,360.0,VALID,0.0,
2019-06-21, 02:53:06,VALID,916.453,VALID,0.0,VALID,99.714,VALID,-0.021,VALID,20.377,INVALID,360.0,VALID,0.0,
2019-06-21, 02:54:06,VALID,916.467,VALID,0.0,VALID,99.724,VALID,-0.019,VALID,20.368,INVALID,360.0,VALID,0.0,
2019-06-21, 02:55:06,VALID,916.465,VALID,0.0,VALID,99.715,VALID,-0.004,VALID,20.378,INVALID,360.0,VALID,0.0,
2019-06-21, 02:56:06,VALID,916.444,VALID,0.0,VALID,99.712,VALID,-0.015,VALID,20.373,INVALID,360.0,VALID,0.0,
2019-06-21, 02:57:06,VALID,916.441,VALID,0.0,VALID,99.734,VALID,-0.017,VALID,20.372,INVALID,360.0,VALID,0.0,
2019-06-21, 02:58:06,VALID,916.433,VALID,0.0,VALID,99.732,VALID,-0.02,VALID,20.38,INVALID,360.0,VALID,0.0,
2019-06-21, 02:59:06,VALID,916.424,VALID,0.0,VALID,99.718,VALID,-0.013,VALID,20.398,INVALID,360.0,VALID,0.0,
2019-06-21, 03:00:06,VALID,916.405,VALID,0.0,VALID,99.735,VALID,-0.012,VALID,20.399,INVALID,360.0,VALID,0.0,
2019-06-21, 03:01:06,VALID,916.404,VALID,0.0,VALID,99.716,VALID,-0.008,VALID,20.395,INVALID,360.0,VALID,0.0,
2019-06-21, 03:02:06,VALID,916.395,VALID,0.0,VALID,99.716,VALID,-0.004,VALID,20.395,INVALID,360.0,VALID,0.0,
2019-06-21, 03:03:06,VALID,916.406,VALID,0.0,VALID,99.727,VALID,-0.014,VALID,20.393,INVALID,360.0,VALID,0.0,
2019-06-21, 03:04:06,VALID,916.391,VALID,0.0,VALID,99.729,VALID,-0.009,VALID,20.407,INVALID,360.0,VALID,0.0,
2019-06-21, 03:05:06,VALID,916.398,VALID,0.0,VALID,99.728,VALID,-0.006,VALID,20.408,INVALID,360.0,VALID,0.0,
2019-06-21, 03:06:06,VALID,916.391,VALID,0.0,VALID,99.739,VALID,-0.01,VALID,20.434,INVALID,360.0,VALID,0.0,
2019-06-21, 03:07:06,VALID,916.386,VALID,0.0,VALID,99.733,VALID,-0.003,VALID,20.411,INVALID,360.0,VALID,0.0,
2019-06-21, 03:08:06,VALID,916.391,VALID,0.0,VALID,99.729,VALID,-0.004,VALID,20.4,INVALID,360.0,VALID,0.0,
2019-06-21, 03:09:06,VALID,916.371,VALID,0.0,VALID,99.72,VALID,-0.003,VALID,20.409,INVALID,360.0,VALID,0.0,
2019-06-21, 03:10:06,VALID,916.363,VALID,0.0,VALID,99.73,VALID,-0.003,VALID,20.424,INVALID,360.0,VALID,0.0,
2019-06-21, 03:11:06,VALID,916.355,VALID,0.0,VALID,99.729,VALID,-0.016,VALID,20.458,INVALID,360.0,VALID,0.0,
2019-06-21, 03:12:06,VALID,916.337,VALID,0.0,VALID,99.729,VALID,-0.021,VALID,20.454,INVALID,360.0,VALID,0.0,
2019-06-21, 03:13:06,VALID,916.333,VALID,0.0,VALID,99.743,VALID,-0.011,VALID,20.438,INVALID,360.0,VALID,0.0,
2019-06-21, 03:14:06,VALID,916.318,VALID,0.0,VALID,99.723,VALID,-0.015,VALID,20.448,INVALID,360.0,VALID,0.0,
2019-06-21, 03:15:06,VALID,916.292,VALID,0.0,VALID,99.723,VALID,-0.017,VALID,20.461,INVALID,360.0,VALID,0.0,
2019-06-21, 03:16:06,VALID,916.28,VALID,0.0,VALID,99.723,VALID,0.007,VALID,20.439,INVALID,360.0,VALID,0.0,
2019-06-21, 03:17:06,VALID,916.282,VALID,0.0,VALID,99.722,VALID,0.0,VALID,20.403,INVALID,360.0,VALID,0.0,
2019-06-21, 03:18:06,VALID,916.269,VALID,0.0,VALID,99.708,VALID,-0.015,VALID,20.413,INVALID,360.0,VALID,0.0,
2019-06-21, 03:19:06,VALID,916.264,VALID,0.0,VALID,99.726,VALID,-0.019,VALID,20.428,INVALID,360.0,VALID,0.0,
2019-06-21, 03:20:06,VALID,916.276,VALID,0.0,VALID,99.745,VALID,-0.012,VALID,20.411,INVALID,360.0,VALID,0.0,
2019-06-21, 03:21:06,VALID,916.284,VALID,0.0,VALID,99.727,VALID,-0.018,VALID,20.392,INVALID,360.0,VALID,0.0,
2019-06-21, 03:22:06,VALID,916.294,VALID,0.0,VALID,99.715,VALID,-0.026,VALID,20.386,INVALID,360.0,VALID,0.0,
2019-06-21, 03:23:06,VALID,916.279,VALID,0.0,VALID,99.733,VALID,-0.026,VALID,20.393,INVALID,360.0,VALID,0.0,
2019-06-21, 03:24:06,VALID,916.294,VALID,0.0,VALID,99.722,VALID,-0.019,VALID,20.431,INVALID,360.0,VALID,0.0,
2019-06-21, 03:25:06,VALID,916.321,VALID,0.0,VALID,99.726,VALID,0.001,VALID,20.435,INVALID,360.0,VALID,0.0,
2019-06-21, 03:26:06,VALID,916.336,VALID,0.0,VALID,99.738,VALID,-0.007,VALID,20.422,INVALID,360.0,VALID,0.0,
2019-06-21, 03:27:06,VALID,916.379,VALID,0.0,VALID,99.729,VALID,-0.018,VALID,20.405,INVALID,360.0,VALID,0.0,
2019-06-21, 03:28:06,VALID,916.38,VALID,0.0,VALID,99.738,VALID,-0.003,VALID,20.395,INVALID,360.0,VALID,0.0,
2019-06-21, 03:29:06,VALID,916.385,VALID,0.0,VALID,99.721,VALID,-0.02,VALID,20.387,INVALID,360.0,VALID,0.0,
2019-06-21, 03:30:06,VALID,916.412,VALID,0.0,VALID,99.724,VALID,0.006,VALID,20.374,INVALID,360.0,VALID,0.0,
2019-06-21, 03:31:06,VALID,916.423,VALID,0.0,VALID,99.749,VALID,0.003,VALID,20.383,INVALID,360.0,VALID,0.0,
2019-06-21, 03:32:06,VALID,916.437,VALID,0.0,VALID,99.758,VALID,-0.006,VALID,20.389,INVALID,360.0,VALID,0.0,
2019-06-21, 03:33:06,VALID,916.435,VALID,0.0,VALID,99.744,VALID,-0.002,VALID,20.396,INVALID,360.0,VALID,0.0,
2019-06-21, 03:34:06,VALID,916.451,VALID,0.0,VALID,99.727,VALID,-0.014,VALID,20.401,INVALID,360.0,VALID,0.0,
2019-06-21, 03:35:06,VALID,916.462,VALID,0.0,VALID,99.734,VALID,-0.003,VALID,20.394,INVALID,360.0,VALID,0.0,
2019-06-21, 03:36:06,VALID,916.491,VALID,0.0,VALID,99.739,VALID,0.006,VALID,20.377,INVALID,360.0,VALID,0.0,
2019-06-21, 03:37:06,VALID,916.516,VALID,0.0,VALID,99.733,VALID,-0.004,VALID,20.377,INVALID,360.0,VALID,0.0,